QPF
0.01 0.01 0.01 0.01 0.01 0.01 0.00 0.01 0.01 0.01 0.01 0.01 0.01 0.02 0.02 0.03 0.03 0.04 0.03 0.03 0.03 0.04 0.04 0.04 0.04 0.03 0.03 0.03 0.02 0.03 0.03 0.02 0.02 0.02 0.01 0.00 0.00 0.01 0.01 0.01 0.01 0.02 0.02
0.01 0.01 0.01 0.01 0.01 0.01 0.00 0.01 0.01 0.01 0.01 0.01 0.01 0.01 0.02 0.02 0.03 0.03 0.04 0.04 0.03 0.03 0.03 0.04 0.04 0.03 0.03 0.03 0.02 0.02 0.02 0.02 0.02 0.02 0.01 0.01 0.01 0.01 0.01 0.01 0.01 0.01 0.01
0.01 0.01 0.01 0.01 0.01 0.01 0.01 0.00 0.01 0.01 0.01 0.01 0.02 0.01 0.02 0.02 0.03 0.04 0.05 0.05 0.04 0.03 0.04 0.04 0.03 0.03 0.03 0.02 0.02 0.02 0.02 0.02 0.02 0.02 0.01 0.01 0.01 0.00 0.00 0.00 0.01 0.02 0.01
0.01 0.01 0.01 0.01 0.01 0.01 0.01 0.01 0.01 0.01 0.01 0.01 0.02 0.01 0.01 0.02 0.02 0.03 0.04 0.05 0.05 0.04 0.04 0.04 0.03 0.02 0.02 0.02 0.02 0.02 0.02 0.02 0.02 0.01 0.01 0.01 0.01 0.01 0.01 0.01 0.01 0.01 0.02
0.01 0.01 0.01 0.01 0.01 0.01 0.01 0.01 0.01 0.01 0.01 0.01 0.02 0.02 0.02 0.02 0.02 0.02 0.02 0.03 0.04 0.04 0.04 0.04 0.04 0.03 0.03 0.02 0.02 0.02 0.02 0.02 0.02 0.02 0.01 0.01 0.01 0.01 0.01 0.01 0.01 0.01 0.02
0.01 0.01 0.02 0.02 0.01 0.02 0.02 0.01 0.01 0.01 0.01 0.01 0.02 0.02 0.02 0.02 0.02 0.02 0.02 0.02 0.02 0.02 0.03 0.04 0.04 0.03 0.03 0.03 0.02 0.02 0.02 0.02 0.02 0.02 0.01 0.01 0.01 0.01 0.01 0.01 0.02 0.02 0.03
0.01 0.02 0.02 0.02 0.02 0.02 0.01 0.01 0.01 0.02 0.01 0.01 0.02 0.02 0.02 0.02 0.02 0.01 0.02 0.02 0.02 0.02 0.02 0.04 0.04 0.03 0.02 0.02 0.02 0.02 0.02 0.02 0.02 0.01 0.01 0.01 0.01 0.01 0.01 0.01 0.02 0.02 0.03
0.02 0.02 0.02 0.02 0.02 0.02 0.01 0.01 0.01 0.01 0.01 0.01 0.01 0.01 0.02 0.02 0.03 0.02 0.02 0.02 0.02 0.02 0.02 0.03 0.03 0.03 0.02 0.02 0.02 0.01 0.01 0.01 0.01 0.01 0.01 0.01 0.01 0.01 0.01 0.01 0.01 0.01 0.01
0.02 0.02 0.02 0.02 0.02 0.01 0.01 0.00 0.00 0.01 0.01 0.01 0.01 0.01 0.01 0.01 0.02 0.02 0.02 0.02 0.02 0.02 0.02 0.02 0.02 0.02 0.03 0.02 0.02 0.02 0.01 0.01 0.01 0.01 0.01 0.01 0.01 0.01 0.01 0.01 0.01 0.01 0.01
0.02 0.02 0.02 0.01 0.01 0.01 0.00 0.00 0.00 0.00 0.01 0.01 0.01 0.01 0.01 0.01 0.01 0.01 0.01 0.01 0.02 0.02 0.02 0.02 0.02 0.02 0.02 0.02 0.02 0.02 0.02 0.01 0.01 0.01 0.01 0.00 0.00 0.00 0.01 0.01 0.01 0.01 0.02
0.01 0.02 0.01 0.01 0.01 0.01 0.00 0.00 0.00 0.01 0.01 0.01 0.02 0.02 0.02 0.02 0.02 0.02 0.02 0.01 0.02 0.03 0.02 0.02 0.01 0.02 0.01 0.01 0.01 0.01 0.01 0.01 0.01 0.01 0.01 0.01 0.00 0.00 0.00 0.00 0.01 0.01 0.02
0.01 0.01 0.01 0.01 0.01 0.01 0.01 0.01 0.01 0.01 0.01 0.01 0.02 0.02 0.02 0.02 0.02 0.02 0.02 0.02 0.02 0.02 0.02 0.02 0.01 0.01 0.01 0.01 0.01 0.01 0.01 0.01 0.01 0.01 0.01 0.01 0.01 0.01 0.00 0.00 0.00 0.00 0.01
0.01 0.01 0.01 0.01 0.01 0.01 0.01 0.01 0.01 0.01 0.01 0.01 0.01 0.02 0.02 0.02 0.02 0.02 0.01 0.01 0.02 0.01 0.01 0.01 0.01 0.01 0.01 0.01 0.01 0.01 0.01 0.01 0.02 0.02 0.01 0.01 0.01 0.01 0.01 0.01 0.01 0.01 0.01
0.01 0.01 0.01 0.01 0.01 0.01 0.01 0.01 0.01 0.01 0.01 0.01 0.01 0.01 0.01 0.01 0.01 0.01 0.01 0.01 0.01 0.01 0.01 0.01 0.01 0.01 0.01 0.01 0.01 0.01 0.01 0.01 0.02 0.02 0.02 0.01 0.01 0.01 0.01 0.01 0.01 0.01 0.01
0.01 0.01 0.01 0.01 0.01 0.01 0.01 0.01 0.01 0.01 0.01 0.02 0.02 0.02 0.02 0.01 0.01 0.01 0.01 0.01 0.01 0.01 0.01 0.01 0.01 0.01 0.02 0.02 0.02 0.02 0.01 0.02 0.02 0.02 0.02 0.02 0.02 0.01 0.01 0.01 0.01 0.01 0.01
0.01 0.01 0.01 0.01 0.01 0.01 0.01 0.01 0.01 0.01 0.01 0.01 0.01 0.02 0.02 0.01 0.01 0.01 0.01 0.01 0.01 0.01 0.02 0.02 0.01 0.01 0.01 0.01 0.02 0.02 0.02 0.02 0.02 0.02 0.02 0.02 0.02 0.02 0.02 0.02 0.02 0.02 0.02
0.01 0.01 0.01 0.01 0.01 0.01 0.01 0.01 0.01 0.01 0.02 0.02 0.01 0.01 0.02 0.02 0.01 0.01 0.01 0.01 0.02 0.02 0.02 0.02 0.01 0.01 0.01 0.01 0.01 0.01 0.02 0.02 0.03 0.03 0.03 0.02 0.02 0.03 0.03 0.02 0.02 0.02 0.02
0.01 0.01 0.01 0.02 0.02 0.02 0.02 0.01 0.02 0.02 0.02 0.02 0.02 0.02 0.02 0.02 0.02 0.02 0.02 0.02 0.02 0.02 0.02 0.02 0.02 0.02 0.02 0.02 0.02 0.02 0.02 0.02 0.02 0.02 0.02 0.02 0.03 0.03 0.03 0.03 0.03 0.02 0.02
0.02 0.02 0.02 0.02 0.02 0.02 0.02 0.02 0.02 0.02 0.02 0.02 0.02 0.03 0.03 0.03 0.02 0.03 0.03 0.02 0.02 0.02 0.02 0.03 0.03 0.02 0.03 0.03 0.02 0.02 0.02 0.02 0.02 0.02 0.02 0.02 0.02 0.03 0.03 0.03 0.03 0.03 0.03
0.02 0.02 0.02 0.02 0.02 0.02 0.02 0.02 0.02 0.02 0.01 0.01 0.02 0.02 0.04 0.04 0.03 0.03 0.03 0.02 0.03 0.03 0.03 0.03 0.03 0.03 0.03 0.03 0.03 0.03 0.02 0.02 0.02 0.02 0.02 0.02 0.02 0.02 0.02 0.02 0.02 0.03 0.03
0.02 0.02 0.02 0.02 0.02 0.02 0.02 0.02 0.02 0.02 0.02 0.02 0.02 0.02 0.03 0.03 0.03 0.03 0.03 0.03 0.03 0.03 0.03 0.02 0.03 0.03 0.03 0.03 0.03 0.02 0.02 0.02 0.02 0.02 0.02 0.02 0.02 0.02 0.02 0.02 0.02 0.02 0.02
0.02 0.02 0.03 0.02 0.03 0.02 0.02 0.02 0.02 0.02 0.01 0.01 0.02 0.02 0.02 0.02 0.02 0.03 0.03 0.03 0.03 0.03 0.02 0.02 0.02 0.02 0.02 0.02 0.02 0.02 0.02 0.02 0.01 0.02 0.02 0.02 0.02 0.03 0.02 0.02 0.02 0.03 0.03
0.03 0.03 0.03 0.02 0.02 0.02 0.02 0.02 0.02 0.01 0.01 0.01 0.01 0.01 0.01 0.02 0.02 0.02 0.02 0.02 0.02 0.02 0.01 0.01 0.01 0.01 0.01 0.01 0.01 0.01 0.01 0.01 0.01 0.02 0.02 0.02 0.02 0.02 0.02 0.03 0.03 0.03 0.03
0.03 0.03 0.02 0.02 0.02 0.02 0.01 0.01 0.01 0.01 0.01 0.01 0.01 0.01 0.01 0.01 0.01 0.01 0.01 0.01 0.01 0.01 0.01 0.01 0.01 0.01 0.01 0.01 0.01 0.01 0.01 0.01 0.02 0.02 0.02 0.02 0.02 0.02 0.02 0.02 0.03 0.03 0.03
0.03 0.02 0.02 0.02 0.01 0.01 0.01 0.01 0.01 0.01 0.01 0.01 0.01 0.01 0.01 0.01 0.01 0.01 0.01 0.00 0.01 0.01 0.01 0.01 0.01 0.01 0.01 0.01 0.01 0.01 0.01 0.01 0.02 0.02 0.02 0.02 0.02 0.02 0.02 0.02 0.02 0.02 0.03
0.03 0.02 0.02 0.01 0.01 0.01 0.01 0.01 0.01 0.01 0.01 0.01 0.01 0.01 0.01 0.01 0.01 0.00 0.00 0.00 0.00 0.00 0.01 0.01 0.01 0.01 0.01 0.01 0.01 0.01 0.01 0.01 0.01 0.02 0.02 0.02 0.02 0.02 0.02 0.02 0.02 0.02 0.03
MSLP
1012.24 1012.49 1012.73 1012.89 1012.92 1012.78 1012.46 1011.97 1011.34 1010.59 1009.79 1008.97 1008.18 1007.46 1006.82 1006.30 1005.92 1005.68 1005.60 1005.67 1005.89 1006.24 1006.71 1007.28 1007.92 1008.61 1009.35 1010.11 1010.90 1011.71 1012.53 1013.37 1014.21 1015.05 1015.85 1016.61 1017.31 1017.92 1018.44 1018.89 1019.26 1019.59 1019.89
1011.95 1012.18 1012.41 1012.58 1012.64 1012.55 1012.30 1011.88 1011.33 1010.68 1009.95 1009.20 1008.47 1007.78 1007.16 1006.65 1006.27 1006.02 1005.91 1005.96 1006.15 1006.46 1006.89 1007.40 1007.98 1008.60 1009.26 1009.95 1010.66 1011.40 1012.18 1012.98 1013.81 1014.65 1015.48 1016.27 1017.00 1017.66 1018.23 1018.71 1019.11 1019.46 1019.77
1011.75 1011.96 1012.17 1012.34 1012.42 1012.36 1012.16 1011.81 1011.34 1010.77 1010.12 1009.45 1008.78 1008.14 1007.56 1007.08 1006.70 1006.45 1006.34 1006.36 1006.51 1006.77 1007.14 1007.57 1008.06 1008.60 1009.16 1009.76 1010.38 1011.05 1011.76 1012.53 1013.33 1014.17 1015.02 1015.84 1016.62 1017.33 1017.95 1018.48 1018.93 1019.31 1019.64
1011.63 1011.81 1012.00 1012.16 1012.25 1012.21 1012.06 1011.77 1011.37 1010.88 1010.32 1009.73 1009.13 1008.55 1008.02 1007.56 1007.20 1006.95 1006.82 1006.82 1006.92 1007.13 1007.42 1007.78 1008.18 1008.61 1009.07 1009.56 1010.10 1010.68 1011.33 1012.04 1012.82 1013.64 1014.49 1015.34 1016.15 1016.91 1017.59 1018.18 1018.68 1019.11 1019.47
1011.55 1011.70 1011.87 1012.02 1012.11 1012.10 1011.99 1011.77 1011.45 1011.04 1010.57 1010.05 1009.53 1009.01 1008.53 1008.10 1007.75 1007.50 1007.35 1007.30 1007.36 1007.51 1007.72 1007.99 1008.30 1008.64 1009.00 1009.40 1009.84 1010.34 1010.92 1011.57 1012.30 1013.09 1013.93 1014.78 1015.62 1016.41 1017.14 1017.79 1018.35 1018.83 1019.24
1011.45 1011.56 1011.71 1011.85 1011.95 1011.98 1011.92 1011.77 1011.54 1011.23 1010.85 1010.43 1009.97 1009.52 1009.07 1008.67 1008.32 1008.06 1007.88 1007.79 1007.79 1007.87 1008.02 1008.21 1008.44 1008.70 1008.98 1009.29 1009.65 1010.07 1010.57 1011.15 1011.82 1012.56 1013.36 1014.20 1015.04 1015.85 1016.61 1017.30 1017.91 1018.45 1018.92
1011.26 1011.34 1011.46 1011.60 1011.72 1011.79 1011.80 1011.74 1011.61 1011.40 1011.13 1010.81 1010.43 1010.03 1009.63 1009.24 1008.89 1008.60 1008.38 1008.25 1008.19 1008.21 1008.30 1008.43 1008.59 1008.78 1009.00 1009.25 1009.54 1009.89 1010.32 1010.82 1011.42 1012.09 1012.84 1013.63 1014.44 1015.24 1016.02 1016.74 1017.40 1017.99 1018.51
1010.96 1010.99 1011.08 1011.21 1011.34 1011.46 1011.55 1011.60 1011.58 1011.50 1011.35 1011.13 1010.84 1010.51 1010.14 1009.77 1009.41 1009.09 1008.83 1008.65 1008.54 1008.51 1008.55 1008.63 1008.75 1008.91 1009.08 1009.29 1009.53 1009.82 1010.18 1010.61 1011.13 1011.73 1012.39 1013.12 1013.88 1014.65 1015.41 1016.15 1016.84 1017.48 1018.05
1010.54 1010.50 1010.54 1010.65 1010.79 1010.96 1011.13 1011.28 1011.39 1011.44 1011.42 1011.32 1011.13 1010.87 1010.55 1010.20 1009.84 1009.50 1009.21 1008.99 1008.84 1008.77 1008.77 1008.83 1008.93 1009.07 1009.23 1009.41 1009.62 1009.87 1010.17 1010.54 1010.97 1011.48 1012.07 1012.71 1013.41 1014.13 1014.86 1015.59 1016.29 1016.95 1017.56
1010.05 1009.91 1009.87 1009.93 1010.07 1010.27 1010.50 1010.75 1010.98 1011.17 1011.28 1011.31 1011.23 1011.06 1010.80 1010.49 1010.15 1009.81 1009.50 1009.26 1009.09 1009.01 1008.99 1009.04 1009.14 1009.28 1009.44 1009.61 1009.81 1010.03 1010.29 1010.60 1010.96 1011.39 1011.89 1012.45 1013.06 1013.73 1014.41 1015.11 1015.81 1016.47 1017.10
1009.56 1009.29 1009.15 1009.13 1009.23 1009.43 1009.71 1010.03 1010.37 1010.67 1010.91 1011.06 1011.10 1011.03 1010.86 1010.61 1010.31 1010.00 1009.71 1009.48 1009.31 1009.23 1009.22 1009.28 1009.39 1009.54 1009.72 1009.90 1010.09 1010.30 1010.53 1010.79 1011.09 1011.44 1011.86 1012.34 1012.88 1013.47 1014.11 1014.76 1015.43 1016.08 1016.70
1009.17 1008.75 1008.47 1008.34 1008.36 1008.53 1008.82 1009.18 1009.58 1009.98 1010.33 1010.60 1010.75 1010.79 1010.72 1010.55 1010.33 1010.08 1009.85 1009.65 1009.52 1009.46 1009.48 1009.57 1009.71 1009.88 1010.07 1010.26 1010.46 1010.66 1010.86 1011.08 1011.34 1011.63 1011.98 1012.39 1012.85 1013.38 1013.95 1014.55 1015.17 1015.79 1016.38
1008.96 1008.37 1007.93 1007.67 1007.59 1007.68 1007.93 1008.29 1008.72 1009.17 1009.60 1009.96 1010.22 1010.37 1010.41 1010.35 1010.23 1010.08 1009.92 1009.80 1009.73 1009.73 1009.79 1009.92 1010.08 1010.28 1010.48 1010.69 1010.89 1011.08 1011.26 1011.46 1011.67 1011.92 1012.21 1012.56 1012.96 1013.41 1013.92 1014.46 1015.02 1015.58 1016.13
1008.97 1008.22 1007.63 1007.22 1007.01 1007.00 1007.17 1007.48 1007.89 1008.35 1008.82 1009.24 1009.58 1009.83 1009.98 1010.04 1010.04 1010.01 1009.96 1009.94 1009.96 1010.02 1010.14 1010.30 1010.50 1010.71 1010.93 1011.14 1011.34 1011.51 1011.69 1011.86 1012.04 1012.25 1012.50 1012.79 1013.14 1013.53 1013.96 1014.43 1014.92 1015.41 1015.90
1009.22 1008.34 1007.61 1007.06 1006.71 1006.57 1006.63 1006.85 1007.20 1007.62 1008.08 1008.52 1008.92 1009.25 1009.50 1009.68 1009.80 1009.89 1009.97 1010.06 1010.17 1010.31 1010.49 1010.70 1010.92 1011.15 1011.37 1011.57 1011.75 1011.92 1012.07 1012.22 1012.38 1012.56 1012.77 1013.02 1013.31 1013.64 1014.00 1014.40 1014.81 1015.23 1015.65
1009.66 1008.69 1007.85 1007.19 1006.72 1006.46 1006.39 1006.49 1006.74 1007.09 1007.49 1007.91 1008.32 1008.69 1009.02 1009.29 1009.53 1009.74 1009.93 1010.13 1010.33 1010.55 1010.78 1011.02 1011.26 1011.49 1011.71 1011.90 1012.07 1012.22 1012.35 1012.48 1012.62 1012.78 1012.96 1013.17 1013.41 1013.68 1013.97 1014.30 1014.63 1014.97 1015.31
1010.20 1009.20 1008.31 1007.57 1007.00 1006.62 1006.43 1006.41 1006.54 1006.78 1007.09 1007.46 1007.84 1008.22 1008.58 1008.92 1009.24 1009.54 1009.83 1010.11 1010.39 1010.67 1010.95 1011.21 1011.46 1011.69 1011.89 1012.07 1012.22 1012.35 1012.47 1012.59 1012.71 1012.84 1013.00 1013.17 1013.37 1013.59 1013.82 1014.07 1014.33 1014.60 1014.87
1010.75 1009.77 1008.87 1008.10 1007.48 1007.02 1006.73 1006.58 1006.58 1006.70 1006.91 1007.18 1007.51 1007.85 1008.22 1008.58 1008.93 1009.29 1009.64 1009.98 1010.31 1010.62 1010.92 1011.20 1011.45 1011.67 1011.86 1012.02 1012.15 1012.28 1012.39 1012.50 1012.61 1012.73 1012.87 1013.02 1013.17 1013.34 1013.52 1013.71 1013.90 1014.09 1014.30
1011.22 1010.30 1009.46 1008.70 1008.06 1007.56 1007.18 1006.94 1006.82 1006.81 1006.90 1007.08 1007.31 1007.60 1007.92 1008.26 1008.62 1008.98 1009.35 1009.71 1010.06 1010.38 1010.68 1010.96 1011.19 1011.40 1011.58 1011.73 1011.87 1011.99 1012.10 1012.22 1012.33 1012.45 1012.58 1012.71 1012.84 1012.97 1013.09 1013.22 1013.36 1013.50 1013.65
1011.55 1010.74 1009.97 1009.27 1008.64 1008.12 1007.69 1007.37 1007.16 1007.05 1007.02 1007.09 1007.23 1007.43 1007.68 1007.97 1008.30 1008.63 1008.98 1009.32 1009.65 1009.96 1010.24 1010.49 1010.72 1010.91 1011.08 1011.24 1011.38 1011.51 1011.65 1011.78 1011.91 1012.04 1012.17 1012.29 1012.40 1012.49 1012.58 1012.67 1012.75 1012.85 1012.96
1011.73 1011.02 1010.35 1009.71 1009.13 1008.61 1008.16 1007.80 1007.51 1007.31 1007.20 1007.16 1007.21 1007.32 1007.50 1007.72 1007.98 1008.26 1008.55 1008.85 1009.13 1009.40 1009.64 1009.87 1010.07 1010.25 1010.42 1010.59 1010.75 1010.91 1011.08 1011.24 1011.40 1011.55 1011.70 1011.82 1011.91 1011.99 1012.05 1012.10 1012.14 1012.20 1012.28
1011.77 1011.16 1010.56 1009.99 1009.45 1008.95 1008.50 1008.11 1007.78 1007.52 1007.34 1007.23 1007.20 1007.24 1007.34 1007.48 1007.67 1007.88 1008.11 1008.34 1008.56 1008.78 1008.97 1009.16 1009.34 1009.51 1009.69 1009.86 1010.05 1010.25 1010.46 1010.66 1010.86 1011.05 1011.21 1011.34 1011.44 1011.50 1011.54 1011.56 1011.58 1011.60 1011.66
1011.70 1011.14 1010.59 1010.06 1009.56 1009.08 1008.63 1008.23 1007.89 1007.60 1007.38 1007.22 1007.14 1007.13 1007.17 1007.25 1007.38 1007.53 1007.69 1007.85 1008.01 1008.16 1008.31 1008.46 1008.61 1008.77 1008.95 1009.14 1009.36 1009.59 1009.84 1010.09 1010.33 1010.54 1010.73 1010.88 1010.98 1011.04 1011.07 1011.07 1011.06 1011.06 1011.08
1011.56 1011.00 1010.46 1009.94 1009.44 1008.97 1008.52 1008.12 1007.77 1007.47 1007.23 1007.07 1006.97 1006.93 1006.94 1006.99 1007.08 1007.18 1007.29 1007.40 1007.50 1007.61 1007.71 1007.82 1007.94 1008.08 1008.25 1008.46 1008.69 1008.95 1009.23 1009.51 1009.78 1010.03 1010.24 1010.41 1010.52 1010.58 1010.60 1010.59 1010.56 1010.53 1010.53
1011.36 1010.77 1010.20 1009.64 1009.12 1008.62 1008.16 1007.75 1007.39 1007.10 1006.87 1006.71 1006.62 1006.59 1006.60 1006.65 1006.72 1006.81 1006.89 1006.97 1007.03 1007.10 1007.16 1007.23 1007.32 1007.44 1007.60 1007.80 1008.04 1008.31 1008.60 1008.90 1009.19 1009.46 1009.69 1009.86 1009.98 1010.05 1010.06 1010.05 1010.01 1009.96 1009.94
1011.14 1010.47 1009.82 1009.19 1008.61 1008.06 1007.57 1007.14 1006.77 1006.48 1006.27 1006.13 1006.07 1006.06 1006.10 1006.17 1006.26 1006.35 1006.43 1006.50 1006.54 1006.58 1006.61 1006.66 1006.71 1006.81 1006.94 1007.11 1007.33 1007.59 1007.88 1008.17 1008.47 1008.74 1008.97 1009.16 1009.28 1009.36 1009.38 1009.36 1009.32 1009.27 1009.24
Thickness
5519 5519 5519 5518 5518 5517 5517 5516 5515 5513 5512 5511 5509 5508 5507 5505 5504 5503 5501 5499 5497 5496 5494 5494 5493 5493 5492 5492 5492 5493 5493 5492 5491 5491 5490 5490 5490 5490 5490 5490 5490 5490 5490
5512 5511 5511 5511 5510 5510 5510 5509 5508 5507 5505 5504 5502 5501 5499 5498 5496 5494 5492 5491 5489 5487 5486 5485 5484 5483 5483 5483 5482 5482 5481 5481 5480 5479 5478 5477 5478 5478 5479 5478 5478 5478 5478
5504 5503 5503 5503 5503 5503 5503 5502 5501 5500 5498 5497 5495 5493 5491 5489 5488 5486 5484 5483 5481 5479 5477 5475 5475 5473 5473 5472 5472 5471 5470 5470 5470 5468 5467 5466 5465 5465 5466 5466 5466 5466 5465
5495 5495 5495 5495 5495 5495 5495 5494 5493 5492 5490 5489 5487 5486 5484 5482 5480 5478 5476 5475 5473 5471 5469 5467 5465 5464 5463 5463 5462 5461 5460 5459 5458 5456 5455 5454 5453 5453 5453 5452 5453 5452 5452
5487 5487 5488 5488 5487 5487 5487 5486 5485 5484 5483 5481 5479 5477 5476 5474 5473 5471 5468 5466 5464 5462 5460 5458 5457 5456 5455 5455 5454 5453 5451 5449 5447 5445 5444 5443 5441 5441 5440 5440 5439 5439 5438
5478 5479 5479 5479 5479 5479 5478 5477 5477 5476 5474 5473 5472 5470 5468 5467 5465 5463 5460 5457 5455 5453 5452 5450 5448 5447 5447 5447 5446 5445 5444 5441 5439 5436 5434 5433 5432 5430 5429 5427 5425 5424 5426
5470 5471 5471 5471 5471 5470 5469 5469 5468 5467 5466 5464 5463 5462 5460 5459 5457 5455 5452 5449 5447 5444 5443 5442 5440 5439 5438 5437 5436 5436 5434 5433 5432 5429 5426 5425 5423 5421 5419 5417 5414 5412 5412
5461 5462 5462 5462 5461 5461 5460 5460 5459 5458 5457 5456 5455 5454 5452 5450 5449 5447 5444 5440 5438 5436 5435 5434 5432 5431 5429 5428 5427 5425 5423 5422 5421 5420 5419 5417 5414 5412 5409 5407 5404 5401 5400
5452 5453 5453 5453 5452 5452 5452 5451 5450 5449 5448 5447 5446 5445 5443 5441 5439 5437 5435 5431 5429 5427 5426 5425 5424 5423 5421 5420 5418 5415 5413 5411 5410 5408 5407 5405 5403 5401 5398 5395 5391 5389 5389
5444 5445 5444 5444 5444 5444 5443 5442 5441 5440 5439 5438 5437 5435 5433 5431 5430 5428 5426 5423 5420 5419 5417 5416 5415 5414 5412 5411 5408 5406 5403 5401 5398 5396 5394 5393 5391 5389 5387 5384 5382 5378 5377
5434 5435 5435 5435 5435 5435 5434 5432 5431 5430 5429 5428 5427 5425 5423 5422 5420 5419 5417 5414 5412 5410 5408 5406 5405 5404 5403 5401 5399 5396 5394 5392 5388 5385 5382 5380 5378 5376 5375 5373 5371 5369 5367
5424 5425 5425 5425 5425 5425 5424 5422 5421 5419 5417 5416 5415 5413 5412 5411 5410 5409 5408 5406 5404 5401 5399 5397 5396 5395 5394 5392 5389 5387 5384 5381 5377 5374 5371 5369 5367 5365 5363 5362 5361 5359 5358
5414 5415 5416 5416 5415 5414 5413 5412 5410 5409 5407 5406 5405 5404 5402 5401 5400 5399 5398 5397 5394 5392 5390 5389 5388 5386 5384 5382 5379 5377 5373 5369 5366 5363 5361 5359 5357 5355 5353 5351 5350 5349 5347
5403 5404 5405 5406 5405 5404 5403 5402 5401 5400 5398 5397 5396 5394 5393 5392 5390 5389 5388 5387 5385 5383 5381 5380 5378 5376 5374 5372 5369 5365 5362 5359 5356 5353 5351 5348 5346 5345 5343 5341 5339 5338 5336
5392 5394 5395 5395 5395 5393 5392 5392 5392 5391 5391 5390 5388 5387 5385 5384 5383 5383 5381 5379 5377 5375 5373 5370 5368 5365 5363 5361 5358 5355 5352 5349 5346 5343 5341 5338 5336 5335 5333 5331 5329 5328 5326
5382 5383 5384 5384 5384 5383 5382 5381 5381 5381 5381 5381 5380 5379 5378 5377 5376 5375 5374 5372 5370 5368 5365 5362 5359 5356 5354 5351 5348 5345 5342 5339 5337 5335 5332 5330 5327 5325 5323 5321 5320 5318 5317
5372 5373 5373 5374 5373 5373 5373 5372 5370 5370 5370 5370 5370 5369 5369 5368 5368 5367 5365 5363 5361 5359 5355 5352 5350 5348 5345 5342 5339 5336 5333 5330 5328 5326 5324 5321 5318 5316 5314 5312 5310 5309 5308
5362 5363 5363 5363 5363 5363 5362 5362 5361 5360 5358 5357 5358 5358 5359 5358 5358 5358 5356 5353 5350 5348 5346 5343 5341 5338 5336 5333 5329 5327 5324 5322 5319 5317 5315 5312 5310 5307 5305 5303 5302 5300 5299
5352 5352 5353 5353 5352 5352 5352 5351 5350 5349 5348 5346 5346 5347 5348 5348 5348 5347 5346 5343 5340 5338 5336 5334 5332 5329 5326 5323 5320 5317 5315 5313 5311 5308 5306 5303 5301 5299 5297 5295 5293 5292 5291
5341 5343 5344 5343 5343 5342 5341 5340 5339 5338 5337 5336 5336 5336 5336 5336 5335 5334 5333 5332 5330 5328 5326 5324 5321 5319 5316 5313 5310 5308 5306 5304 5302 5300 5297 5295 5293 5291 5289 5287 5286 5284 5283
5332 5332 5333 5333 5333 5332 5331 5330 5329 5328 5326 5326 5325 5326 5327 5326 5324 5323 5322 5321 5319 5317 5315 5313 5311 5309 5306 5304 5301 5299 5297 5295 5293 5291 5289 5287 5286 5284 5282 5280 5278 5277 5275
5322 5322 5322 5322 5322 5321 5321 5319 5318 5317 5317 5316 5315 5316 5316 5314 5313 5312 5311 5310 5309 5307 5305 5303 5301 5299 5297 5295 5293 5291 5288 5287 5285 5283 5282 5280 5279 5277 5275 5273 5271 5270 5269
5312 5312 5312 5312 5312 5312 5310 5308 5308 5307 5307 5306 5306 5306 5305 5304 5304 5303 5302 5300 5299 5297 5295 5294 5292 5290 5288 5286 5285 5283 5281 5279 5278 5276 5275 5273 5272 5270 5268 5266 5265 5264 5263
5301 5302 5302 5301 5301 5300 5299 5298 5298 5298 5297 5297 5296 5295 5295 5294 5294 5293 5292 5291 5289 5288 5287 5285 5284 5282 5280 5278 5277 5276 5274 5273 5271 5270 5268 5267 5266 5264 5262 5260 5259 5258 5257
5291 5291 5291 5290 5290 5289 5289 5288 5288 5287 5287 5287 5286 5286 5285 5284 5284 5283 5282 5281 5280 5279 5278 5276 5275 5274 5272 5271 5270 5269 5268 5267 5265 5264 5263 5262 5260 5258 5256 5255 5253 5252 5252
5279 5279 5279 5279 5279 5279 5278 5278 5277 5277 5277 5277 5277 5276 5276 5275 5275 5274 5273 5272 5271 5270 5269 5268 5267 5266 5265 5264 5263 5262 5262 5261 5260 5260 5258 5257 5255 5253 5251 5250 5249 5248 5247